Location: *
(46.3500°N, 10.9000°E)
Time: 22:36:43
(UTC+00:00)

Explorer 7 - Pass Details

Date: 25 April 2021
Orbit: 484 x 677 km, 50.3° (Epoch: 05 May)

Event Time Altitude Azimuth Distance (km) Brightness Sun altitude
Rises 22:37:30 0° 293° (WNW) 2,753 10.8 -29.6°
Reaches altitude 10° 22:39:43 10° 289° (WNW) 1,887 9.8 -29.6°
Enters shadow 22:40:24 14° 287° (WNW) 1,627 9.4 -29.7°
Maximum altitude 22:43:57 56° 211° (SSW) 715 - -29.8°
Drops below altitude 10° 22:48:27 10° 133° (SE) 1,998 - -29.9°
Sets 22:50:51 0° 130° (SE) 2,932 - -29.9°
